Location: Contalmaison
(50.0228°N, 2.7312°E)
Time: 18:15:01
(UTC+00:00)

Daily predictions for brighter satellites

Satellite Brightness Start Highest point End
(mag) Time Altitude Azimuth Time Altitude Azimuth Time Altitude Azimuth
CZ-4C R/B 2.9 16:44:38 10° NW 16:51:31 66° NE 16:59:32 10° ESE
USA 234 3.8 16:45:47 10° SE 16:52:15 65° SW 16:58:46 10° WNW
Cosmos 2150 Rocket 4.5 16:48:17 10° S 16:53:06 42° ESE 16:57:56 10° NE
NOAA 12 4.3 16:48:13 10° SE 16:53:12 47° ENE 16:58:14 10° N
Cosmos 2322 3.9 16:47:53 10° NNW 16:53:35 80° WSW 16:59:14 10° SSE
IRS-1C Rocket 4.1 16:50:18 10° SSE 16:55:30 69° ENE 17:00:45 10° NNW
ALOS 4.3 16:52:28 10° SSW 16:56:42 34° W 17:00:58 10° NNW
Helios 1A Rocket 3.6 16:53:31 10° S 16:57:30 60° WSW 17:01:32 10° NNW
CORIOLIS 4.2 16:53:07 10° SSE 16:58:25 64° ENE 17:03:45 10° N
COBE Rocket 4.0 16:55:57 10° NNE 17:01:07 82° ESE 17:06:18 10° S
COSMO-SKYMED 1 4.0 16:58:03 10° NE 17:01:13 19° E 17:04:23 10° SE
Cosmos 1980 4.2 16:55:55 10° NNW 17:01:14 38° NE 17:06:31 10° ESE
Cosmos 2297 Rocket 3.9 17:00:53 10° ESE 17:03:23 13° E 17:05:53 10° ENE
Starlink AQ 3.7 17:00:58 10° SW 17:03:42 36° SSE 17:06:27 10° ENE
Cosmos 2360 Rocket 3.8 16:59:51 10° NW 17:05:07 41° WSW 17:10:20 10° S
Nadezhda 3 Rocket 4.2 16:59:32 10° N 17:05:36 49° ENE 17:11:42 10° SSE
Starlink AS 3.6 17:03:05 10° SW 17:05:50 37° SSE 17:08:34 10° ENE
Starlink BA 3.6 17:03:19 10° SW 17:06:03 37° SSE 17:08:48 10° ENE
Starlink AU 3.6 17:03:32 10° SW 17:06:16 37° SSE 17:09:02 10° ENE
Starlink AT 3.6 17:03:46 10° SW 17:06:30 37° SSE 17:09:14 10° ENE
Starlink BB 3.6 17:03:59 10° SW 17:06:44 37° SSE 17:09:27 10° ENE
Starlink BC 3.6 17:04:12 10° SW 17:06:57 37° SSE 17:09:41 10° ENE
Starlink BK 3.6 17:04:26 10° SW 17:07:10 38° SSE 17:09:54 10° ENE
Starlink AY 3.6 17:04:39 10° SW 17:07:24 38° SSE 17:10:07 10° ENE
Starlink AW 3.6 17:04:52 10° SW 17:07:37 38° SSE 17:10:19 10° ENE
Starlink BJ 3.6 17:05:05 10° SW 17:07:50 38° SSE 17:10:31 10° ENE
Starlink AV 3.6 17:05:19 10° SW 17:08:04 38° SSE 17:10:45 11° ENE
Starlink BD 3.6 17:05:32 10° SW 17:08:17 38° SSE 17:10:58 11° ENE
H-2A R/B 2.8 17:04:32 10° SSE 17:08:22 90° WSW 17:12:17 10° NNW
Starlink BE 3.6 17:05:46 10° SW 17:08:31 39° SSE 17:11:11 11° ENE
Starlink BM 3.6 17:05:59 10° SW 17:08:44 39° SSE 17:11:24 11° ENE
Starlink AX 3.5 17:06:12 10° SW 17:08:58 39° SSE 17:11:37 11° ENE
Starlink BH 3.5 17:06:26 10° SW 17:09:11 39° SSE 17:11:50 11° ENE
Starlink AZ 3.5 17:06:39 10° SW 17:09:24 39° SSE 17:12:03 11° ENE
Cosmos 1125 Rocket 4.2 17:04:48 10° SSE 17:09:26 34° ESE 17:14:06 10° NE
Starlink BG 3.5 17:06:52 10° SW 17:09:38 39° SSE 17:12:16 11° ENE
Starlink BF 3.5 17:07:06 10° SW 17:09:51 39° SSE 17:12:29 11° ENE
Starlink BL 3.5 17:07:18 10° SW 17:10:05 40° SSE 17:12:44 11° ENE
Starlink AH 3.5 17:07:34 10° SW 17:10:19 40° SSE 17:12:56 11° ENE
Starlink AC 3.5 17:07:48 10° SW 17:10:34 40° SSE 17:13:10 11° ENE
Starlink X 3.5 17:08:00 10° SW 17:10:45 40° SSE 17:13:21 11° ENE
Starlink AE 3.5 17:08:09 10° SW 17:10:58 41° SSE 17:13:36 11° ENE
Starlink Z 3.5 17:08:26 10° SW 17:11:13 40° SSE 17:13:47 11° ENE
Starlink AK 3.5 17:08:39 10° SW 17:11:26 41° SSE 17:14:00 12° ENE
Starlink AL 3.5 17:08:53 10° SW 17:11:40 41° SSE 17:14:13 12° ENE
Starlink AD 3.5 17:09:08 10° SW 17:11:55 41° SSE 17:14:27 12° ENE
Okean-O 2.8 17:07:43 10° SE 17:12:00 50° ENE 17:16:18 10° N
Starlink Y 3.4 17:09:34 10° SW 17:12:21 41° SSE 17:14:52 12° ENE
Starlink AG 3.4 17:09:47 10° SW 17:12:35 41° SSE 17:15:06 12° ENE
Starlink W 3.4 17:09:58 10° SW 17:12:47 42° SSE 17:15:20 12° ENE
Cosmos 2219 Rocket 2.3 17:07:12 10° NNW 17:12:56 90° NE 17:18:37 10° SSE
Starlink AJ 3.4 17:10:12 10° SW 17:12:59 42° SSE 17:15:30 12° ENE
NOSS 0 Rocket 4.0 17:07:07 10° NNW 17:13:20 61° NE 17:19:28 10° SE
Starlink AM 3.4 17:10:41 10° SW 17:13:28 42° SSE 17:15:58 12° ENE
Starlink AP 3.4 17:10:52 10° SW 17:13:41 42° SSE 17:16:10 12° ENE
Starlink AA 3.4 17:11:08 10° SW 17:13:55 42° SSE 17:16:24 12° ENE
Starlink AF 3.4 17:11:20 10° SW 17:14:07 42° SSE 17:16:36 12° ENE
Starlink AB 3.4 17:11:34 10° SW 17:14:22 43° SSE 17:16:49 12° ENE
Starlink AN 3.4 17:11:46 10° SW 17:14:34 43° SSE 17:17:02 13° ENE
Okean O Rocket 3.5 17:10:34 10° SSW 17:14:38 35° W 17:18:46 10° NNW
COSMOS 2428 2.8 17:09:30 10° NNW 17:15:18 89° WSW 17:21:03 10° SSE
Cosmos 2227 Rocket 3.8 17:12:20 10° SE 17:15:24 15° E 17:18:07 11° ENE
Cosmos 1626 Rocket 3.8 17:12:10 10° SSE 17:16:19 46° E 17:20:28 10° NNE
ATLAS CENTAUR R/B 3.3 17:13:53 10° NNW 17:16:26 15° NNE 17:18:38 11° NE
Timation 2 Rocket 4.1 17:13:36 10° S 17:19:30 54° ESE 17:25:40 10° NE
Envisat 2.9 17:16:56 10° SSE 17:21:59 73° ENE 17:27:05 10° N
Starlink T 3.1 17:20:57 10° SW 17:23:50 51° SSE 17:25:59 16° ENE
Cosmos 1269 Rocket 4.2 17:19:54 10° NNW 17:25:02 47° ENE 17:30:07 10° SE
Starlink N 3.1 17:22:11 10° SW 17:25:04 52° SSE 17:27:11 16° ENE
Starlink Q 3.1 17:23:43 10° SW 17:26:37 53° SSE 17:28:40 17° ENE
Cosmos 1048 Rocket 4.0 17:22:14 10° NNW 17:27:25 84° WSW 17:32:32 10° SSE
Starlink P 3.0 17:25:03 10° SW 17:27:57 54° SSE 17:29:58 18° ENE
Alouette 2 Rocket 4.3 17:24:22 10° NNW 17:28:52 81° WSW 17:35:44 10° S
Starlink U 3.0 17:26:23 10° SW 17:29:17 56° SSE 17:31:15 18° ENE
Starlink B 3.0 17:27:44 10° SW 17:30:39 57° SSE 17:32:35 19° ENE
CZ-4 R/B 1.8 17:26:55 10° SE 17:30:42 40° ENE 17:34:35 10° N
Cosmos 372 Rocket 4.0 17:29:09 10° SSW 17:34:18 86° WNW 17:39:31 10° NNE
Cosmos 1607 3.9 17:29:31 10° SSW 17:35:36 72° SE 17:41:26 12° NE
ADEOS Rocket 4.4 17:31:18 10° NE 17:36:04 21° E 17:41:08 10° SE
Starlink D 2.9 17:33:15 10° SW 17:36:12 63° SSE 17:37:57 22° ENE
SJ 16-02 3.4 17:33:47 10° WSW 17:37:24 24° NW 17:41:03 10° N
Starlink S 2.9 17:34:40 10° SW 17:37:38 64° SSE 17:39:20 22° ENE
Starlink C 2.8 17:36:03 10° WSW 17:39:01 66° SSE 17:40:40 23° ENE
CZ-4B R/B 4.2 17:38:11 10° NW 17:39:29 12° WNW 17:40:47 10° W
Starlink E 2.8 17:37:29 10° WSW 17:40:28 67° SSE 17:42:03 24° ENE
Starlink J 2.8 17:38:55 10° WSW 17:41:54 69° SSE 17:43:27 25° ENE
Starlink V 2.8 17:40:20 10° WSW 17:43:18 70° SSE 17:44:49 26° ENE
Starlink H 2.8 17:41:47 10° WSW 17:44:46 72° SSE 17:46:13 27° ENE
Starlink F 2.7 17:43:14 10° WSW 17:46:13 74° SSE 17:47:37 28° ENE
Starlink G 2.7 17:44:40 10° WSW 17:47:39 75° SSE 17:49:00 29° ENE
Meteor 2-10 Rocket 4.0 17:43:49 10° N 17:48:51 37° ENE 17:53:39 10° SE
Starlink L 2.7 17:46:07 10° WSW 17:49:07 77° SSE 17:50:24 31° ENE
SKYMED 2 3.7 17:45:18 10° NNE 17:49:36 54° E 17:53:50 10° S
Starlink A 2.7 17:47:34 10° WSW 17:50:35 78° SSE 17:51:49 32° ENE
CSL-04 Debris 4.2 17:46:32 10° SE 17:51:47 56° ENE 17:57:04 10° N
ERBS 4.0 17:49:35 10° S 17:51:53 18° SE 17:52:10 17° ESE
Starlink R 2.7 17:49:02 10° WSW 17:52:03 80° SSE 17:53:14 33° ENE
Starlink K 2.7 17:50:28 10° WSW 17:53:29 82° SSE 17:54:37 35° ENE
Starlink M 2.7 17:51:53 10° WSW 17:54:53 83° SSE 17:55:58 36° ENE
USA 267 3.5 17:54:02 17° NE 17:59:04 62° NNW 18:05:30 10° W
CZ-2D R/B 3.5 17:57:00 10° SE 18:00:39 45° ENE 18:04:22 10° N
Cosmos 1812 Rocket 3.9 17:57:23 10° NNW 18:01:51 69° W 18:06:17 10° S
Cosmos 2218 Rocket 4.4 17:56:51 10° SSE 18:02:38 39° E 18:08:29 10° NNE
USA 116 4.0 18:02:59 32° ESE 18:02:59 32° ESE 18:05:31 10° SSE
ATLAS CENTAUR R/B 4.0 17:56:57 10° WSW 18:02:43 75° NNW 18:15:08 18° ENE
Cosmos 494 Rocket 4.2 17:58:16 10° NNW 18:03:24 73° WSW 18:08:30 10° SSE
Cosmos 2237 Rocket 2.1 17:57:52 10° NNW 18:03:33 87° ENE 18:09:10 10° SSE
Cosmos 2333 Rocket 3.8 17:58:39 10° NW 18:03:54 38° WSW 18:09:06 10° S
Cosmos 1300 3.9 18:01:22 10° NNW 18:05:02 44° W 18:08:40 10° SSW
Ariane Rocket 3.5 18:00:56 10° SE 18:05:29 35° ENE 18:10:04 10° N
Cosmos 2154 Rocket 4.2 18:04:44 10° SSW 18:11:01 76° W 18:17:18 10° N
YAOGAN 1 2.4 18:07:35 10° SSE 18:11:55 83° ENE 18:16:16 10° NNW
H-2A R/B 3.2 18:15:09 23° NE 18:15:09 23° NE 18:18:08 10° N
Cosmos 1340 Rocket 3.8 18:10:46 10° NNW 18:14:35 48° W 18:18:24 10° S
Meteor 1-21 Rocket 4.1 18:10:53 10° S 18:16:24 66° E 18:22:04 10° NNE
Starlink AR 2.8 18:15:41 10° W 18:17:54 56° WNW 18:17:54 56° WNW
Cosmos-2242 2.9 18:13:55 10° N 18:18:17 73° E 18:22:34 10° SSE
CSL-04 Rocket 3.7 18:14:47 10° SSE 18:20:17 89° ENE 18:25:53 10° NNW
Cosmos 1242 Rocket 4.3 18:17:31 10° SW 18:20:42 32° WNW 18:23:57 10° N
Cosmos 1455 2.1 18:17:24 10° N 18:21:13 59° ENE 18:24:57 10° SSE
NOSS 2-1 (C) 4.3 18:16:18 10° NW 18:21:25 87° NE 18:28:36 10° SE
Cosmos 2251 Rocket 3.8 18:17:27 10° NNW 18:22:31 44° ENE 18:24:10 34° ESE
SL-16 R/B 2.3 18:18:42 10° NNW 18:24:18 55° NE 18:27:14 27° ESE
Cosmos 1626 3.7 18:20:54 10° SW 18:24:19 35° WNW 18:27:46 10° N
NOSS 2-1 (D) 4.3 18:20:06 10° NW 18:25:14 89° SW 18:32:29 10° SE
ATLAS 5 CENTAUR R/B 3.3 18:24:11 10° W 18:28:06 28° NNW 18:30:44 18° NNE
Cosmos 1959 Rocket 4.4 18:23:21 10° S 18:29:22 57° E 18:35:21 10° NNE
DMSP B5D1-3 4.5 18:26:17 20° NNE 18:29:43 57° E 18:34:43 10° S
USA 32 4.1 18:25:09 10° S 18:30:22 78° W 18:35:39 10° N
Cosmos 2219 3.1 18:25:30 10° SSW 18:31:06 79° ESE 18:34:24 26° NNE
CZ-2C R/B 4.3 18:33:09 26° NE 18:33:09 26° NE 18:36:27 10° N
Cosmos 2082 4.2 18:29:51 10° S 18:34:39 36° ESE 18:34:39 36° ESE
COSMO-SKYMED 1 3.3 18:33:27 10° N 18:37:42 52° WNW 18:41:55 10° SSW
Cosmos 1939 Rocket 3.0 18:34:17 10° S 18:38:10 71° WSW 18:42:08 10° NNW
Starlink AQ 3.8 18:35:57 10° W 18:38:10 43° WNW 18:38:10 43° WNW
Cosmos 2366 rocket 3.9 18:33:19 10° S 18:39:26 66° E 18:45:40 10° NNE
CZ-4C R/B 4.1 18:33:21 10° NW 18:40:06 43° WSW 18:47:40 10° S
Starlink AS 4.0 18:38:02 10° W 18:40:08 39° WNW 18:40:08 39° WNW
Starlink BA 4.0 18:38:15 10° W 18:40:21 39° WNW 18:40:21 39° WNW
Starlink AU 4.0 18:38:28 10° W 18:40:34 39° WNW 18:40:34 39° WNW
Starlink AT 4.1 18:38:42 10° W 18:40:47 38° WNW 18:40:47 38° WNW
Starlink BB 4.1 18:38:56 10° W 18:41:00 38° WNW 18:41:00 38° WNW
Starlink BC 4.1 18:39:09 10° W 18:41:13 38° WNW 18:41:13 38° WNW
Starlink BK 4.1 18:39:23 10° W 18:41:26 38° WNW 18:41:26 38° WNW
Starlink AY 4.1 18:39:37 10° W 18:41:39 37° WNW 18:41:39 37° WNW
Starlink AW 4.1 18:39:50 10° W 18:41:52 37° WNW 18:41:52 37° WNW
Cosmos 1953 Rocket 3.4 18:38:20 10° S 18:42:48 76° E 18:44:05 46° NNE
Starlink BJ 4.2 18:40:03 10° W 18:42:03 37° WNW 18:42:03 37° WNW
Starlink AV 4.2 18:40:17 10° W 18:42:17 37° WNW 18:42:17 37° WNW
Starlink BD 4.2 18:40:30 10° W 18:42:30 36° WNW 18:42:30 36° WNW
Starlink BE 4.2 18:40:44 10° W 18:42:44 36° WNW 18:42:44 36° WNW
Starlink BM 4.2 18:40:57 10° W 18:42:56 36° WNW 18:42:56 36° WNW
Starlink AX 4.2 18:41:11 10° W 18:43:09 36° WNW 18:43:09 36° WNW
Starlink BH 4.3 18:41:25 10° W 18:43:22 35° WNW 18:43:22 35° WNW
Starlink AZ 4.3 18:41:38 10° W 18:43:35 35° WNW 18:43:35 35° WNW
Starlink BG 4.3 18:41:52 10° W 18:43:48 35° WNW 18:43:48 35° WNW
Starlink BF 4.3 18:42:05 10° W 18:44:01 34° WNW 18:44:01 34° WNW
BREEZE-M DEB (TANK) 4.4 18:43:03 10° SW 18:43:51 19° SSW 18:43:51 19° SSW
Starlink BL 4.3 18:42:18 10° W 18:44:16 35° WNW 18:44:16 35° WNW
Starlink AH 4.3 18:42:34 10° W 18:44:28 34° WNW 18:44:28 34° WNW
Starlink AC 4.4 18:42:48 10° W 18:44:42 34° WNW 18:44:42 34° WNW
Starlink X 4.4 18:42:59 10° W 18:44:53 34° WNW 18:44:53 34° WNW
Starlink AE 4.3 18:43:10 10° W 18:45:08 35° WNW 18:45:08 35° WNW
Starlink Z 4.4 18:43:27 10° W 18:45:19 33° WNW 18:45:19 33° WNW
Cosmos 2297 Rocket 2.1 18:40:49 10° SSW 18:46:26 75° ESE 18:48:25 42° NE
Starlink AK 4.4 18:43:40 10° W 18:45:32 33° WNW 18:45:32 33° WNW
Starlink AL 4.4 18:43:54 10° W 18:45:45 33° WNW 18:45:45 33° WNW
Starlink AD 4.4 18:44:10 10° W 18:46:00 32° WNW 18:46:00 32° WNW
Starlink Y 4.5 18:44:35 10° W 18:46:25 32° WNW 18:46:25 32° WNW
Starlink AG 4.5 18:44:50 10° W 18:46:39 32° WNW 18:46:39 32° WNW
Starlink W 4.5 18:45:01 10° W 18:46:52 33° WNW 18:46:52 33° WNW
Cosmos 1758 Rocket 4.0 18:43:51 10° SSW 18:48:06 59° WNW 18:51:32 15° N
Cosmos 1932 4.5 18:41:55 10° SSW 18:48:11 64° ESE 18:50:04 45° ENE
SJ-11-01 4.3 18:56:12 66° NNE 18:56:12 66° NNE 19:00:30 10° N
ATLAS CENTAUR R/B 2.7 18:52:24 10° NNW 18:54:50 29° N 18:54:50 29° N
Cosmos 2227 Rocket 2.0 18:52:54 10° SSW 18:58:34 83° ESE 18:59:59 53° NE
Cosmos 1727 Rocket 3.8 18:55:39 10° N 19:01:53 86° ENE 19:08:04 10° S
ISS -0.9 18:59:27 10° SSW 18:59:47 12° SSW 18:59:47 12° SSW
BREEZE-M DEB (TANK) 4.0 18:46:09 10° W 19:03:50 87° S 19:05:06 58° E
CZ-4 R/B 3.9 19:02:40 10° SW 19:05:54 23° W 19:09:11 10° NW
Cosmos 1943 4.5 19:08:15 10° NNW 19:11:24 27° N 19:11:24 27° N
ARGOS 4.0 19:18:09 39° N 19:18:09 39° N 19:21:32 10° N
ADEOS Rocket 3.2 19:15:49 10° NNE 19:22:13 87° WNW 19:29:21 10° SSW
USA 267 3.7 19:41:23 48° N 19:41:36 49° N 19:47:50 10° WNW
Ariane Rocket 4.3 19:40:07 12° SSW 19:44:25 38° W 19:49:10 10° NNW
H-2A R/B 3.7 19:55:45 27° NNW 19:55:45 27° NNW 19:58:09 10° NNW
SL-16 R/B 3.8 20:03:17 10° NW 20:08:07 30° WSW 20:09:13 28° SW
ATLAS 5 CENTAUR R/B 4.4 20:10:54 10° NW 20:12:17 15° NNW 20:12:17 15° NNW
ATLAS 5 CENTAUR R/B 3.9 20:19:38 10° NW 20:55:42 - SE 20:24:37 77° WSW
Cosmos 2297 Rocket 4.1 20:26:21 10° W 20:30:17 25° WNW 20:30:17 25° WNW
Cosmos 2227 Rocket 4.3 20:38:46 10° W 20:41:52 22° WNW 20:41:52 22° WNW
